TimeMDT,TemperatureF,Dew PointF,Humidity,Sea Level PressureIn,VisibilityMPH,Wind Direction,Wind SpeedMPH,Gust SpeedMPH,PrecipitationIn,Events,Conditions,WindDirDegrees,DateUTC
12:15 AM,60.8,8.6,13,30.29,10.0,WSW,9.2,-,N/A,,Clear,250,2013-06-22 06:15:00
12:35 AM,60.8,6.8,12,30.29,10.0,West,4.6,-,N/A,,Clear,280,2013-06-22 06:35:00
12:55 AM,59.0,6.8,13,30.29,10.0,West,5.8,-,N/A,,Clear,270,2013-06-22 06:55:00
1:15 AM,60.8,5.0,11,30.29,10.0,WNW,4.6,-,N/A,,Clear,290,2013-06-22 07:15:00
1:35 AM,60.8,1.4,9,30.29,10.0,WSW,6.9,-,N/A,,Clear,250,2013-06-22 07:35:00
1:55 AM,60.8,1.4,9,30.29,10.0,WSW,6.9,-,N/A,,Clear,240,2013-06-22 07:55:00
2:15 AM,60.8,1.4,9,30.29,10.0,WSW,6.9,-,N/A,,Clear,250,2013-06-22 08:15:00
2:35 AM,60.8,1.4,9,30.28,10.0,WSW,8.1,-,N/A,,Clear,250,2013-06-22 08:35:00
2:55 AM,59.0,1.4,10,30.28,10.0,WSW,10.4,-,N/A,,Clear,250,2013-06-22 08:55:00
3:15 AM,59.0,1.4,10,30.28,10.0,WSW,11.5,-,N/A,,Clear,250,2013-06-22 09:15:00
3:34 AM,59.0,3.2,11,30.28,10.0,West,4.6,-,N/A,,Clear,280,2013-06-22 09:34:00
3:55 AM,59.0,3.2,11,30.28,10.0,WSW,8.1,-,N/A,,Clear,250,2013-06-22 09:55:00
4:15 AM,57.2,5.0,12,30.28,10.0,WSW,6.9,-,N/A,,Clear,240,2013-06-22 10:15:00
4:35 AM,59.0,3.2,11,30.28,10.0,SW,5.8,-,N/A,,Clear,230,2013-06-22 10:35:00
4:55 AM,57.2,5.0,12,30.28,10.0,Calm,Calm,-,N/A,,Clear,0,2013-06-22 10:55:00
5:14 AM,59.0,5.0,12,30.28,10.0,Calm,Calm,-,N/A,,Clear,0,2013-06-22 11:14:00
5:35 AM,55.4,8.6,15,30.29,10.0,SE,4.6,-,N/A,,Clear,130,2013-06-22 11:35:00
5:55 AM,55.4,8.6,15,30.29,10.0,Calm,Calm,-,N/A,,Clear,0,2013-06-22 11:55:00
6:14 AM,57.2,5.0,12,30.29,10.0,Calm,Calm,-,N/A,,Clear,0,2013-06-22 12:14:00
6:35 AM,59.0,6.8,13,30.29,10.0,Calm,Calm,-,N/A,,Clear,0,2013-06-22 12:35:00
6:55 AM,59.0,12.2,16,30.28,10.0,Calm,Calm,-,N/A,,Clear,0,2013-06-22 12:55:00
7:15 AM,57.2,12.2,17,30.28,10.0,Calm,Calm,-,N/A,,Clear,0,2013-06-22 13:15:00
7:35 AM,59.0,14.0,17,30.28,10.0,Calm,Calm,-,N/A,,Clear,0,2013-06-22 13:35:00
7:54 AM,59.0,17.6,20,30.28,10.0,Calm,Calm,-,N/A,,Clear,0,2013-06-22 13:54:00
8:15 AM,60.8,17.6,19,30.28,10.0,ESE,4.6,-,N/A,,Clear,120,2013-06-22 14:15:00
8:35 AM,62.6,19.4,19,30.28,10.0,Calm,Calm,-,N/A,,Clear,0,2013-06-22 14:35:00
8:55 AM,62.6,14.0,15,30.28,10.0,ESE,5.8,-,N/A,,Clear,110,2013-06-22 14:55:00
9:15 AM,62.6,12.2,14,30.28,10.0,Calm,Calm,-,N/A,,Clear,0,2013-06-22 15:15:00
9:35 AM,64.4,10.4,12,30.27,10.0,WNW,3.5,-,N/A,,Clear,290,2013-06-22 15:35:00
9:55 AM,64.4,5.0,10,30.27,10.0,WSW,8.1,19.6,N/A,,Clear,250,2013-06-22 15:55:00
10:15 AM,64.4,3.2,9,30.27,10.0,WNW,8.1,21.9,N/A,,Clear,300,2013-06-22 16:15:00
10:35 AM,64.4,-0.4,7,30.26,10.0,SW,18.4,26.5,N/A,,Clear,230,2013-06-22 16:35:00
10:55 AM,66.2,-0.4,7,30.26,10.0,SW,20.7,29.9,N/A,,Clear,220,2013-06-22 16:55:00
11:15 AM,64.4,-0.4,7,30.26,10.0,SW,15.0,33.4,N/A,,Clear,220,2013-06-22 17:15:00
11:35 AM,68.0,-0.4,7,30.26,10.0,SSW,16.1,26.5,N/A,,Clear,200,2013-06-22 17:35:00
11:55 AM,68.0,-4.0,6,30.26,10.0,SSW,18.4,31.1,N/A,,Clear,200,2013-06-22 17:55:00
12:15 PM,68.0,-4.0,6,30.26,10.0,WSW,21.9,27.6,N/A,,Clear,250,2013-06-22 18:15:00
12:35 PM,68.0,-7.6,5,30.25,10.0,SW,23.0,36.8,N/A,,Clear,220,2013-06-22 18:35:00
12:55 PM,69.8,-7.6,4,30.26,10.0,West,19.6,33.4,N/A,,Clear,280,2013-06-22 18:55:00
1:15 PM,68.0,-5.8,5,30.25,10.0,West,9.2,25.3,N/A,,Clear,270,2013-06-22 19:15:00
1:34 PM,69.8,-11.2,4,30.23,10.0,South,18.4,34.5,N/A,,Clear,190,2013-06-22 19:34:00
1:54 PM,69.8,-9.4,4,30.24,10.0,West,15.0,31.1,N/A,,Scattered Clouds,270,2013-06-22 19:54:00
2:14 PM,68.0,-4.0,6,30.23,10.0,West,16.1,31.1,N/A,,Scattered Clouds,260,2013-06-22 20:14:00
2:35 PM,73.4,-2.2,5,30.23,10.0,WNW,5.8,18.4,N/A,,Scattered Clouds,300,2013-06-22 20:35:00
2:55 PM,71.6,-4.0,5,30.22,10.0,West,8.1,25.3,N/A,,Scattered Clouds,270,2013-06-22 20:55:00
3:15 PM,75.2,-2.2,5,30.21,10.0,West,6.9,-,N/A,,Scattered Clouds,280,2013-06-22 21:15:00
3:35 PM,73.4,-0.4,5,30.21,10.0,WNW,8.1,-,N/A,,Scattered Clouds,290,2013-06-22 21:35:00
3:55 PM,73.4,-4.0,5,30.20,10.0,North,5.8,-,N/A,,Scattered Clouds,10,2013-06-22 21:55:00
4:15 PM,73.4,-0.4,5,30.21,10.0,West,8.1,-,N/A,,Scattered Clouds,260,2013-06-22 22:15:00
4:35 PM,71.6,-2.2,5,30.20,10.0,West,11.5,18.4,N/A,,Scattered Clouds,280,2013-06-22 22:35:00
4:55 PM,71.6,-2.2,5,30.20,10.0,West,12.7,28.8,N/A,,Scattered Clouds,260,2013-06-22 22:55:00
5:15 PM,69.8,-0.4,6,30.18,10.0,North,6.9,16.1,N/A,,Scattered Clouds,10,2013-06-22 23:15:00
5:34 PM,71.6,-0.4,6,30.18,10.0,NNW,6.9,18.4,N/A,,Mostly Cloudy,340,2013-06-22 23:34:00
5:55 PM,69.8,-2.2,6,30.18,10.0,North,3.5,27.6,N/A,,Scattered Clouds,350,2013-06-22 23:55:00
6:14 PM,71.6,-4.0,5,30.18,10.0,NNW,6.9,-,N/A,,Scattered Clouds,330,2013-06-23 00:14:00
6:35 PM,71.6,-4.0,5,30.19,10.0,West,8.1,31.1,N/A,,Clear,260,2013-06-23 00:35:00
6:54 PM,69.8,-5.8,5,30.19,10.0,West,9.2,27.6,N/A,,Clear,280,2013-06-23 00:54:00
7:15 PM,69.8,-4.0,5,30.21,10.0,Calm,Calm,-,N/A,,Clear,0,2013-06-23 01:15:00
7:34 PM,68.0,-4.0,6,30.22,10.0,WNW,12.7,23.0,N/A,,Clear,290,2013-06-23 01:34:00
7:55 PM,66.2,-4.0,6,30.23,10.0,North,5.8,-,N/A,,Clear,350,2013-06-23 01:55:00
8:15 PM,62.6,-2.2,7,30.23,10.0,NNW,5.8,-,N/A,,Clear,330,2013-06-23 02:15:00
8:35 PM,62.6,-0.4,8,30.25,10.0,WSW,9.2,-,N/A,,Clear,250,2013-06-23 02:35:00
8:55 PM,62.6,-0.4,8,30.25,10.0,Calm,Calm,-,N/A,,Clear,0,2013-06-23 02:55:00
9:15 PM,62.6,1.4,9,30.25,10.0,NW,6.9,23.0,N/A,,Clear,320,2013-06-23 03:15:00
9:35 PM,62.6,1.4,9,30.27,10.0,West,10.4,19.6,N/A,,Clear,280,2013-06-23 03:35:00
9:55 PM,60.8,3.2,10,30.28,10.0,NW,5.8,17.3,N/A,,Clear,320,2013-06-23 03:55:00
10:15 PM,60.8,5.0,11,30.28,10.0,North,5.8,-,N/A,,Clear,360,2013-06-23 04:15:00
10:35 PM,59.0,5.0,12,30.29,10.0,WNW,5.8,-,N/A,,Clear,290,2013-06-23 04:35:00
10:55 PM,59.0,8.6,14,30.27,10.0,West,10.4,-,N/A,,Clear,260,2013-06-23 04:55:00
11:15 PM,57.2,8.6,14,30.28,10.0,NNW,4.6,-,N/A,,Clear,330,2013-06-23 05:15:00
11:35 PM,57.2,6.8,13,30.28,10.0,WNW,5.8,-,N/A,,Clear,300,2013-06-23 05:35:00
11:55 PM,60.8,3.2,10,30.27,10.0,West,10.4,16.1,N/A,,Clear,260,2013-06-23 05:55:00